Location: Unspecified
(37.0616°N, 0.0000°E)
Time: 20:10:48
(UTC+00:00)

UNISAT 6 - Visible Passes

Search period start: 04 April 2026 00:00
Search period end: 14 April 2026 00:00
Orbit: 574 x 636 km, 97.8° (Epoch: 28 March)

Date Brightness Start Highest point End Pass type
(mag) Time Alt. Az. Time Alt. Az. Time Alt. Az.
4 Apr ? 02:31:51 19° NE 02:31:51 19° NE 02:33:43 10° NNE visible
4 Apr ? 04:08:40 14° NW 04:08:40 14° NW 04:09:30 10° NW visible
5 Apr ? 02:44:18 25° NNE 02:44:18 25° NNE 02:46:35 10° N visible
5 Apr ? 04:21:08 12° NW 04:21:08 12° NW 04:21:33 10° NW visible
6 Apr ? 02:56:45 31° NNE 02:56:45 31° NNE 02:59:20 10° N visible
7 Apr ? 03:09:12 38° N 03:09:12 38° N 03:11:59 10° N visible
8 Apr ? 03:21:38 42° NNW 03:21:38 42° NNW 03:24:34 10° NNW visible
9 Apr ? 01:57:14 11° ENE 01:57:33 11° ENE 01:58:34 10° NE visible
9 Apr ? 03:34:04 41° NW 03:34:04 41° NW 03:37:02 10° NNW visible
10 Apr ? 02:09:40 15° ENE 02:09:54 15° ENE 02:12:20 10° NNE visible
10 Apr ? 03:46:30 34° WNW 03:46:30 34° WNW 03:49:26 10° NNW visible
11 Apr ? 02:22:06 20° ENE 02:22:17 20° ENE 02:25:27 10° NNE visible
11 Apr ? 03:58:55 27° WNW 03:58:55 27° WNW 04:01:42 10° NW visible
12 Apr ? 02:34:31 27° ENE 02:34:41 27° ENE 02:38:21 10° NNE visible
12 Apr ? 04:11:20 21° WNW 04:11:20 21° WNW 04:13:51 10° NW visible
13 Apr ? 02:46:55 37° ENE 02:47:05 37° ENE 02:51:07 10° N visible
13 Apr ? 04:23:45 16° W 04:23:45 16° W 04:25:45 10° NW visible
